Hilton Head Island, SC

3:00 PM EST on February 14, 2016 (GMT -0500)
Hilton Head

Weather History for KHXD - January, 2013

Change the Weather History Date:

Monday, January 21, 2013

  Actual Average Record
Temperature  
Mean Temperature 52 °F -  
Max Temperature 64 °F 58 °F 71 °F (2015)
Min Temperature 39 °F 38 °F 41 °F (2016)
Degree Days  
Heating Degree Days 14    
Growing Degree Days 2 (Base 50)    
Moisture  
Dew Point 44 °F    
Average Humidity 84    
Maximum Humidity 100    
Minimum Humidity 34    
Precipitation  
Precipitation 0.00 in - - ()
Sea Level Pressure  
Sea Level Pressure 30.08 in    
Wind  
Wind Speed 4 mph (West)    
Max Wind Speed 10 mph    
Max Gust Speed 18 mph    
Visibility 10 miles    
Events      
Averages and records for this station are not official NWS values.
T = Trace of Precipitation, MM = Missing Value Source: NWS Daily Summary

Daily Weather History Graph

Daily Weather History Graph

Search for Another Location

Airport or City:

Trip Planner

Search our weather history database for the weather conditions in past years. The results will help you decide how hot, cold, wet, or windy it might be!

Date:

Astronomy

Jan. 21, 2013 Rise Set
Actual Time 7:22 AM EST 5:46 PM EST
Civil Twilight 6:56 AM EST 6:12 PM EST
Nautical Twilight 6:26 AM EST 6:42 PM EST
Astronomical Twilight 5:57 AM EST 7:11 PM EST
Moon 1:26 PM EST (1/21) 2:48 AM EST (1/21)
Length of Visible Light 11h 16m
Length of Day
10h 24m
Waxing Gibbous, 75% of the Moon is Illuminated
Jan 21
Waxing Gibbous
Jan 26
Full
Feb 3
Last Quarter
Feb 10
New
Feb 17
First Quarter

Hourly Weather History & Observations

Time (EST) Temp. Windchill Dew Point Humidity Pressure Visibility Wind Dir Wind Speed Gust Speed Precip Events Conditions
12:15 AM 44.6 °F 42.2 °F 44.6 °F 100% 30.12 in 10.0 mi West 4.6 mph - 0.00 in   Clear
12:35 AM 42.8 °F 41.1 °F 42.8 °F 100% 30.11 in 10.0 mi West 3.5 mph - 0.00 in   Clear
12:55 AM 42.8 °F 41.1 °F 42.8 °F 100% 30.11 in 10.0 mi West 3.5 mph - 0.00 in   Clear
1:15 AM 42.8 °F 41.1 °F 42.8 °F 100% 30.11 in 10.0 mi West 3.5 mph - 0.00 in   Clear
1:35 AM 42.8 °F 41.1 °F 42.8 °F 100% 30.11 in 10.0 mi WSW 3.5 mph - 0.00 in   Clear
1:55 AM 42.8 °F 41.1 °F 42.8 °F 100% 30.11 in 10.0 mi WSW 3.5 mph - 0.00 in   Clear
2:15 AM 42.8 °F 41.1 °F 42.8 °F 100% 30.10 in 10.0 mi WSW 3.5 mph - 0.00 in   Clear
2:35 AM 42.8 °F 41.1 °F 42.8 °F 100% 30.10 in 10.0 mi WSW 3.5 mph - 0.00 in   Clear
2:55 AM 42.8 °F - 42.8 °F 100% 30.10 in 10.0 mi Calm Calm - 0.00 in   Clear
3:15 AM 41.0 °F 39.0 °F 41.0 °F 100% 30.09 in 10.0 mi WSW 3.5 mph - 0.00 in   Clear
3:35 AM 41.0 °F 39.0 °F 41.0 °F 100% 30.09 in 10.0 mi WSW 3.5 mph - 0.00 in   Clear
3:55 AM 41.0 °F 39.0 °F 41.0 °F 100% 30.09 in 7.0 mi West 3.5 mph - 0.00 in   Clear
4:15 AM 41.0 °F 38.0 °F 41.0 °F 100% 30.09 in 8.0 mi West 4.6 mph - 0.00 in   Clear
4:35 AM 41.0 °F 39.0 °F 41.0 °F 100% 30.08 in 10.0 mi West 3.5 mph - 0.00 in   Clear
4:55 AM 41.0 °F 39.0 °F 41.0 °F 100% 30.08 in 10.0 mi West 3.5 mph - 0.00 in   Clear
5:15 AM 41.0 °F 39.0 °F 41.0 °F 100% 30.08 in 10.0 mi West 3.5 mph - 0.00 in   Clear
5:35 AM 41.0 °F 39.0 °F 41.0 °F 100% 30.08 in 10.0 mi West 3.5 mph - 0.00 in   Clear
6:50 AM 39.2 °F 37.0 °F 39.2 °F 100% 30.08 in 10.0 mi West 3.5 mph - N/A   Clear
7:50 AM 46.4 °F 45.2 °F 39.2 °F 76% 30.08 in 10.0 mi West 3.5 mph - N/A   Clear
8:50 AM 50.0 °F - 39.2 °F 66% 30.08 in 10.0 mi Calm Calm - N/A   Clear
9:50 AM 55.4 °F - 39.2 °F 54% 30.14 in 10.0 mi Calm Calm - N/A   Clear
10:55 AM 60.8 °F - 33.8 °F 36% 30.12 in 10.0 mi West 5.8 mph - N/A   Clear
11:50 AM 62.6 °F - 48.2 °F 59% 30.12 in 10.0 mi WNW 8.1 mph - N/A   Clear
12:50 PM 64.4 °F - 35.6 °F 34% 30.08 in 10.0 mi West 6.9 mph - N/A   Clear
1:58 PM 64.4 °F - 35.6 °F 34% 30.04 in 10.0 mi WSW 6.9 mph - N/A   Clear
2:50 PM 64.4 °F - 37.4 °F 37% 30.02 in 10.0 mi WSW 8.1 mph - N/A   Clear
3:50 PM 64.4 °F - 37.4 °F 37% 30.02 in 10.0 mi WSW 6.9 mph - N/A   Clear
4:50 PM 62.6 °F - 37.4 °F 39% 30.03 in 10.0 mi West 6.9 mph - N/A   Clear
5:50 PM 60.8 °F - 39.2 °F 45% 30.04 in 10.0 mi WSW 6.9 mph - N/A   Clear
6:50 PM 57.2 °F - 41.0 °F 55% 30.05 in 10.0 mi SW 5.8 mph - N/A   Clear
7:50 PM 55.4 °F - 41.0 °F 58% 30.06 in 10.0 mi SW 4.6 mph - N/A   Clear
8:15 PM 55.4 °F - 55.4 °F 100% 30.06 in 10.0 mi SW 4.6 mph - 0.00 in   Clear
8:35 PM 55.4 °F - 55.4 °F 100% 30.07 in 10.0 mi WSW 4.6 mph - 0.00 in   Clear
8:55 PM 55.4 °F - 55.4 °F 100% 30.07 in 10.0 mi WSW 4.6 mph - 0.00 in   Clear
9:15 PM 55.4 °F - 55.4 °F 100% 30.08 in 10.0 mi West 5.8 mph - 0.00 in   Clear
9:35 PM 55.4 °F - 55.4 °F 100% 30.09 in 10.0 mi WSW 4.6 mph - 0.00 in   Clear
9:55 PM 55.4 °F - 55.4 °F 100% 30.09 in 10.0 mi West 6.9 mph - 0.00 in   Clear
10:35 PM 55.4 °F - 55.4 °F 100% 30.10 in 10.0 mi West 10.4 mph 17.3 mph 0.00 in   Clear
10:55 PM 55.4 °F - 55.4 °F 100% 30.10 in 10.0 mi WNW 9.2 mph - 0.00 in   Clear
11:15 PM 55.4 °F - 55.4 °F 100% 30.10 in 10.0 mi WNW 8.1 mph 18.4 mph 0.00 in   Clear
11:35 PM 55.4 °F - 55.4 °F 100% 30.10 in 10.0 mi West 6.9 mph - 0.00 in   Clear
11:55 PM 55.4 °F - 55.4 °F 100% 30.10 in 10.0 mi West 9.2 mph 18.4 mph 0.00 in   Clear